CW0506 Weather Reports


Display with metric or nautical units.
time (UTC)temp
F
wind
direction
speed
MPH
gust
MPH
rain 1hr
in
rain 24hr
in
rain mn
in
humidity
%
barometer
mb
20260506182105 59 76 2.0 4.0 0.02 0.06 0.06 98 1008.9
20260506181603 59 238 3.0 4.0 0.02 0.06 0.06 98 1009.0
20260506181059 59 340 5.0 9.0 0.00 0.05 0.05 97 1008.9
20260506180556 59 296 4.0 11.0 0.02 0.05 0.05 97 1008.7
20260506180053 60 285 6.0 10.0 0.02 0.05 0.05 97 1008.6
20260506175549 60 59 0.0 7.0 0.02 0.05 0.05 97 1008.8
20260506175045 60 269 2.0 7.0 0.05 0.05 0.05 97 1009.0
20260506174544 60 275 1.0 6.0 0.02 0.04 0.04 97 1008.6
20260506174039 61 324 3.0 5.0 0.05 0.04 0.04 96 1008.8
20260506173538 61 312 4.0 10.0 0.07 0.04 0.04 95 1008.9
20260506173034 61 287 2.0 11.0 0.07 0.03 0.03 95 1009.1
20260506172532 61 187 0.0 8.0 0.07 0.02 0.02 94 1009.2
20260506172028 62 275 2.0 8.0 0.07 0.02 0.02 93 1009.4
20260506171525 62 284 1.0 5.0 0.05 0.01 0.01 92 1009.5
20260506171023 62 300 4.0 9.0 0.05 0.01 0.01 90 1009.7
20260506170520 63 286 3.0 6.0 0.02 0.00 0.00 89 1009.8
20260506170012 64 226 6.0 8.0 0.00 0.00 0.00 86 1010.0
20260506165510 64 298 4.0 8.0 0.00 0.00 0.00 84 1009.9
20260506165006 65 315 1.0 10.0 0.00 0.00 0.00 84 1009.8
20260506164503 65 265 3.0 9.0 0.00 0.00 0.00 83 1009.6
20260506164000 66 285 4.0 7.0 0.00 0.00 0.00 82 1010.0
20260506163454 66 265 4.0 9.0 0.00 0.00 0.00 81 1009.9
20260506162949 66 320 3.0 9.0 0.00 0.00 0.00 81 1009.8
20260506162447 67 299 5.0 13.0 0.00 0.00 0.00 78 1009.7
20260506161939 67 287 2.0 8.0 0.00 0.00 0.00 79 1009.8
20260506161437 68 307 6.0 13.0 0.00 0.00 0.00 77 1009.5
20260506160929 67 197 0.0 11.0 0.00 0.00 0.00 77 1009.7
20260506160426 68 257 10.0 13.0 0.00 0.00 0.00 76 1009.8
20260506155923 68 280 6.0 14.0 0.00 0.00 0.00 75 1009.9
20260506155420 68 295 3.0 14.0 0.00 0.00 0.00 75 1009.9
20260506153542 68 317 11.0 11.0 0.00 0.00 0.00 75 1010.3
20260506153040 68 289 9.0 11.0 0.00 0.00 0.00 75 1010.1
20260506152537 68 263 6.0 12.0 0.00 0.00 0.00 75 1010.2
20260506152035 68 339 3.0 11.0 0.00 0.00 0.00 75 1010.2
20260506151532 68 295 7.0 9.0 0.00 0.00 0.00 76 1010.3
20260506151024 67 282 6.0 10.0 0.00 0.00 0.00 76 1010.0
20260506150520 68 299 8.0 10.0 0.00 0.00 0.00 75 1010.5
20260506150017 68 310 3.0 13.0 0.00 0.00 0.00 75 1010.3
20260506145514 68 268 2.0 9.0 0.00 0.00 0.00 75 1010.1
20260506145011 67 303 1.0 9.0 0.00 0.00 0.00 77 1010.3
20260506144508 67 84 1.0 12.0 0.00 0.00 0.00 77 1010.2
20260506144005 67 255 4.0 9.0 0.00 0.00 0.00 77 1010.3
20260506143503 67 264 5.0 11.0 0.00 0.00 0.00 77 1010.5
20260506143001 67 282 5.0 13.0 0.00 0.00 0.00 77 1010.6
20260506142458 67 285 1.0 9.0 0.00 0.00 0.00 77 1010.5
20260506141956 67 305 2.0 4.0 0.00 0.00 0.00 79 1010.5
20260506141454 67 228 2.0 9.0 0.00 0.00 0.00 77 1010.5
20260506140952 68 302 1.0 4.0 0.00 0.00 0.00 76 1010.3
20260506140449 66 11 1.0 9.0 0.00 0.00 0.00 79 1010.2
20260506135945 65 263 2.0 6.0 0.00 0.00 0.00 80 1010.3
20260506135443 64 2 1.0 10.0 0.00 0.00 0.00 83 1010.5
20260506134938 65 353 2.0 9.0 0.00 0.00 0.00 83 1010.6
20260506134435 64 255 4.0 7.0 0.00 0.00 0.00 83 1010.5
20260506133932 64 254 2.0 8.0 0.00 0.00 0.00 84 1010.3
20260506133429 63 177 0.0 3.0 0.00 0.00 0.00 85 1010.4
20260506132926 63 294 4.0 10.0 0.00 0.00 0.00 84 1010.4
20260506132423 63 315 2.0 6.0 0.00 0.00 0.00 85 1010.3
20260506131920 63 249 2.0 5.0 0.00 0.00 0.00 85 1010.4
20260506131416 63 346 0.0 6.0 0.00 0.00 0.00 86 1010.5
20260506130914 62 198 2.0 6.0 0.00 0.00 0.00 86 1010.4
20260506130410 62 231 1.0 3.0 0.00 0.00 0.00 87 1010.5
20260506125908 61 224 1.0 5.0 0.00 0.00 0.00 88 1010.8
20260506125406 61 303 1.0 4.0 0.00 0.00 0.00 88 1010.7
20260506124904 61 283 4.0 7.0 0.00 0.00 0.00 88 1010.6
20260506124401 61 312 6.0 9.0 0.00 0.00 0.00 88 1010.8
20260506123859 61 273 3.0 5.0 0.00 0.00 0.00 88 1011.0
20260506123357 61 257 3.0 5.0 0.00 0.00 0.00 88 1011.2
20260506122854 61 295 4.0 9.0 0.00 0.00 0.00 88 1011.3
20260506122350 61 35 3.0 5.0 0.00 0.00 0.00 89 1011.2
20260506121849 61 37 3.0 8.0 0.00 0.00 0.00 89 1011.2
20260506121346 60 273 5.0 7.0 0.00 0.00 0.00 89 1011.0
20260506120843 61 352 10.0 15.0 0.00 0.00 0.00 89 1011.2
20260506120340 60 296 2.0 6.0 0.00 0.00 0.00 90 1011.3
20260506115837 60 298 2.0 4.0 0.00 0.00 0.00 91 1011.0
20260506115336 60 172 1.0 5.0 0.00 0.00 0.00 91 1011.2
20260506114834 60 105 1.0 6.0 0.00 0.00 0.00 90 1011.0
20260506114331 60 265 1.0 9.0 0.00 0.00 0.00 91 1011.0
20260506113830 59 243 2.0 5.0 0.00 0.00 0.00 92 1011.0
20260506113326 59 237 1.0 8.0 0.00 0.00 0.00 92 1011.3
20260506112823 58 312 0.0 1.0 0.00 0.00 0.00 93 1011.3
20260506112320 58 29 0.0 3.0 0.00 0.00 0.00 93 1011.0
20260506111818 58 156 0.0 2.0 0.00 0.00 0.00 94 1011.2
20260506111316 57 85 2.0 3.0 0.00 0.00 0.00 95 1011.0
20260506110813 57 98 2.0 5.0 0.00 0.00 0.00 97 1011.2
20260506110310 56 238 2.0 2.0 0.00 0.00 0.00 97 1011.4
20260506105806 56 51 3.0 4.0 0.00 0.00 0.00 98 1011.2
20260506105305 55 214 0.0 2.0 0.00 0.00 0.00 98 1011.2
20260506104801 55 113 0.0 2.0 0.00 0.00 0.00 98 1011.4
20260506104258 55 150 0.0 2.0 0.00 0.00 0.00 98 1011.2
20260506103756 55 125 0.0 2.0 0.00 0.00 0.00 98 1011.0
20260506103253 55 146 2.0 3.0 0.00 0.00 0.00 98 1011.3
20260506102750 55 341 1.0 2.0 0.00 0.00 0.00 98 1011.4
20260506102248 55 155 0.0 2.0 0.00 0.00 0.00 98 1011.3
20260506101745 55 137 0.0 1.0 0.00 0.00 0.00 98 1011.4
20260506101241 55 132 0.0 2.0 0.00 0.00 0.00 98 1011.0
20260506100740 54 105 0.0 2.0 0.00 0.00 0.00 98 1011.0
20260506100237 54 73 0.0 2.0 0.00 0.00 0.00 97 1010.9
20260506095736 54 111 1.0 3.0 0.00 0.00 0.00 97 1011.0
20260506095232 55 150 2.0 2.0 0.00 0.00 0.00 97 1011.2
20260506094729 55 185 1.0 3.0 0.00 0.00 0.00 97 1011.2
20260506094227 55 146 3.0 3.0 0.00 0.00 0.00 97 1010.8
20260506093726 55 144 0.0 1.0 0.00 0.00 0.00 97 1011.0
20260506093222 55 138 2.0 2.0 0.00 0.00 0.00 96 1010.9
20260506092720 55 101 0.0 3.0 0.00 0.00 0.00 96 1011.0
20260506092218 55 154 2.0 3.0 0.00 0.00 0.00 96 1010.8
20260506091715 55 115 1.0 2.0 0.00 0.00 0.00 96 1010.8
20260506091212 55 145 1.0 2.0 0.00 0.00 0.00 96 1010.9
20260506090710 55 194 1.0 3.0 0.00 0.00 0.00 95 1010.9
20260506090206 55 149 0.0 3.0 0.00 0.00 0.00 95 1010.9
20260506085704 55 125 0.0 3.0 0.00 0.00 0.00 95 1011.2
20260506085159 55 163 0.0 3.0 0.00 0.00 0.00 95 1010.9
20260506084656 56 121 0.0 3.0 0.00 0.00 0.00 95 1011.0
20260506084153 56 132 2.0 3.0 0.00 0.00 0.00 94 1010.8
20260506083650 56 137 0.0 2.0 0.00 0.00 0.00 94 1010.8
20260506083148 56 161 1.0 4.0 0.00 0.00 0.00 94 1011.0
20260506082644 56 117 0.0 2.0 0.00 0.00 0.00 93 1010.9
20260506082139 56 113 0.0 3.0 0.00 0.00 0.00 93 1011.2
20260506081638 57 148 1.0 2.0 0.00 0.00 0.00 93 1011.3
20260506081135 57 158 1.0 5.0 0.00 0.00 0.00 93 1010.9
20260506080632 57 100 0.0 5.0 0.00 0.00 0.00 93 1011.0
20260506080129 56 189 1.0 2.0 0.00 0.00 0.00 93 1010.9
20260506073113 57 133 2.0 2.0 0.00 0.00 0.00 92 1011.2
20260506072609 57 116 2.0 3.0 0.00 0.00 0.00 91 1010.9
20260506072108 57 166 0.0 2.0 0.00 0.00 0.00 90 1011.0
20260506071605 57 152 2.0 3.0 0.00 0.00 0.00 90 1011.0
20260506071102 57 106 1.0 3.0 0.00 0.00 0.00 90 1011.2
20260506070559 57 146 2.0 2.0 0.00 0.00 0.00 89 1011.0
20260506062033 61 140 1.0 2.0 0.00 0.00 0.00 81 1010.8
20260506061529 61 309 1.0 6.0 0.00 0.00 0.00 80 1010.9
20260506061027 61 318 3.0 5.0 0.00 0.00 0.00 79 1010.8
20260506060526 61 30 0.0 3.0 0.00 0.00 0.00 80 1010.8
20260506050954 63 280 0.0 2.0 0.00 0.00 0.00 74 1011.2
20260506050452 64 252 2.0 9.0 0.00 0.00 0.00 74 1011.2
20260506044942 63 258 0.0 3.0 0.00 0.00 0.00 75 1011.0
20260506044441 63 225 2.0 4.0 0.00 0.00 0.00 75 1011.2
20260506043937 64 264 2.0 6.0 0.00 0.00 0.00 74 1011.2
20260506043434 64 236 8.0 9.0 0.00 0.00 0.00 74 1011.4
20260506042932 63 230 3.0 7.0 0.00 0.00 0.00 74 1010.9
20260506042431 62 150 0.0 2.0 0.00 0.00 0.00 77 1011.3
20260506041929 62 263 4.0 6.0 0.00 0.00 0.00 78 1011.2
20260506041427 61 118 0.0 2.0 0.00 0.00 0.00 78 1011.5
20260506040924 61 175 0.0 2.0 0.00 0.00 0.00 78 1011.3
20260506040421 62 91 0.0 3.0 0.00 0.00 0.00 77 1011.2
20260506035917 62 64 1.0 3.0 0.00 0.00 0.00 77 1011.3
20260506035415 62 122 0.0 2.0 0.00 0.00 0.00 77 1011.2
20260506034911 64 284 2.0 6.0 0.00 0.00 0.00 74 1011.3
20260506034408 62 274 3.0 3.0 0.00 0.00 0.00 76 1011.3
20260506033905 63 226 2.0 4.0 0.00 0.00 0.00 76 1011.4
20260506033403 63 162 0.0 3.0 0.00 0.00 0.00 74 1011.4
20260506032859 63 321 2.0 3.0 0.00 0.00 0.00 75 1011.4
20260506032356 62 150 0.0 4.0 0.00 0.00 0.00 75 1011.2
20260506031853 62 79 0.0 1.0 0.00 0.00 0.00 75 1011.2
20260506031350 63 254 2.0 6.0 0.00 0.00 0.00 75 1011.4
20260506030848 63 251 1.0 5.0 0.00 0.00 0.00 74 1011.3
20260506030346 63 248 1.0 4.0 0.00 0.00 0.00 73 1011.5
20260506025842 63 230 4.0 9.0 0.00 0.00 0.00 73 1011.3
20260506025339 63 307 1.0 4.0 0.00 0.00 0.00 73 1011.3
20260506024836 64 317 0.0 5.0 0.00 0.00 0.00 72 1011.2
20260506024333 63 358 0.0 5.0 0.00 0.00 0.00 73 1011.0
20260506023829 63 213 4.0 7.0 0.00 0.00 0.00 73 1011.3
20260506023326 63 178 0.0 2.0 0.00 0.00 0.00 74 1010.8
20260506022822 63 262 0.0 3.0 0.00 0.00 0.00 72 1011.0
20260506022320 62 221 0.0 4.0 0.00 0.00 0.00 74 1011.2
20260506021819 63 137 0.0 1.0 0.00 0.00 0.00 73 1011.0
20260506021315 63 295 0.0 2.0 0.00 0.00 0.00 73 1011.2
20260506020811 63 162 0.0 1.0 0.00 0.00 0.00 74 1011.0
20260506020309 63 133 1.0 3.0 0.00 0.00 0.00 74 1010.9
20260506015807 63 83 0.0 3.0 0.00 0.00 0.00 73 1011.2
20260506015306 63 151 1.0 3.0 0.00 0.00 0.00 73 1011.2
20260506014801 64 137 0.0 3.0 0.00 0.00 0.00 72 1010.9
20260506014258 64 166 1.0 2.0 0.00 0.00 0.00 70 1010.9
20260506013754 65 36 0.0 2.0 0.00 0.00 0.00 68 1010.8
20260506013252 65 304 6.0 8.0 0.00 0.00 0.00 68 1010.8
20260506012748 65 251 2.0 5.0 0.00 0.00 0.00 69 1010.5
20260506012245 66 285 2.0 6.0 0.00 0.00 0.00 67 1010.8
20260506011742 66 293 3.0 5.0 0.00 0.00 0.00 68 1010.7
20260506011239 66 30 2.0 4.0 0.00 0.00 0.00 67 1010.6
20260506010737 66 20 2.0 3.0 0.00 0.00 0.00 68 1010.5
20260506010234 66 246 1.0 5.0 0.00 0.00 0.00 66 1010.5
20260506005731 67 280 5.0 9.0 0.00 0.00 0.00 65 1010.5
20260506005228 66 292 3.0 5.0 0.00 0.00 0.00 66 1010.3
20260506004724 66 238 1.0 5.0 0.00 0.00 0.00 66 1010.3
20260506004222 67 347 2.0 4.0 0.00 0.00 0.00 66 1010.4
20260506003717 67 257 4.0 9.0 0.00 0.00 0.00 65 1010.1
20260506003214 67 256 3.0 8.0 0.00 0.00 0.00 65 1010.1
20260506002710 68 270 2.0 6.0 0.00 0.00 0.00 64 1010.3
20260506002206 68 322 2.0 6.0 0.00 0.00 0.00 65 1010.0
20260506001702 68 196 1.0 6.0 0.00 0.00 0.00 64 1009.9
20260506001200 68 245 2.0 3.0 0.00 0.00 0.00 64 1009.8
20260506000656 68 274 4.0 9.0 0.00 0.00 0.00 63 1009.6
20260506000154 69 296 4.0 9.0 0.00 0.00 0.00 62 1009.4
20260505235652 69 262 2.0 8.0 0.00 0.00 0.00 62 1009.5
20260505235149 69 282 4.0 10.0 0.00 0.00 0.00 62 1009.5
20260505234646 69 296 3.0 9.0 0.00 0.00 0.00 62 1009.5
20260505234142 69 239 4.0 11.0 0.00 0.00 0.00 62 1009.2
20260505233639 69 294 6.0 8.0 0.00 0.00 0.00 61 1009.4
20260505233137 70 312 6.0 8.0 0.00 0.00 0.00 61 1009.2
20260505232635 70 283 6.0 13.0 0.00 0.00 0.00 60 1009.2
20260505232132 70 273 2.0 6.0 0.00 0.00 0.00 60 1009.1
20260505231629 70 301 2.0 6.0 0.00 0.00 0.00 60 1008.9
20260505231127 71 255 2.0 7.0 0.00 0.00 0.00 60 1009.2
20260505230625 71 40 2.0 6.0 0.00 0.00 0.00 60 1009.0
20260505230121 71 18 4.0 7.0 0.00 0.00 0.00 59 1008.9
20260505225618 71 295 3.0 12.0 0.00 0.00 0.00 59 1008.9
20260505225114 72 324 5.0 12.0 0.00 0.00 0.00 59 1008.7
20260505224611 72 130 3.0 16.0 0.00 0.00 0.00 60 1008.6
20260505224108 72 258 9.0 13.0 0.00 0.00 0.00 59 1008.6
20260505223605 72 273 0.0 16.0 0.00 0.00 0.00 59 1008.5
20260505223101 72 283 5.0 17.0 0.00 0.00 0.00 58 1008.5
20260505222558 72 268 4.0 14.0 0.00 0.00 0.00 58 1008.6
20260505222054 73 296 6.0 14.0 0.00 0.00 0.00 58 1008.3
20260505221551 73 304 3.0 14.0 0.00 0.00 0.00 58 1008.2
20260505221047 73 48 1.0 10.0 0.00 0.00 0.00 58 1008.1
20260505220545 73 276 10.0 15.0 0.00 0.00 0.00 57 1008.2
20260505220043 74 243 8.0 13.0 0.00 0.00 0.00 56 1008.3
20260505215541 73 297 3.0 9.0 0.00 0.00 0.00 56 1008.5
20260505215038 74 260 5.0 13.0 0.00 0.00 0.00 55 1008.7
20260505214536 75 269 2.0 10.0 0.00 0.00 0.00 56 1008.4
20260505214033 75 304 4.0 8.0 0.00 0.00 0.00 55 1008.6
20260505213531 75 271 16.0 16.0 0.00 0.00 0.00 54 1008.5
20260505213026 75 11 2.0 15.0 0.00 0.00 0.00 55 1008.4
20260505212523 76 341 2.0 9.0 0.00 0.00 0.00 53 1008.4
20260505212020 76 311 4.0 17.0 0.00 0.00 0.00 53 1008.3
20260505211518 76 268 5.0 11.0 0.00 0.00 0.00 52 1008.2
20260505211014 76 324 4.0 8.0 0.00 0.00 0.00 53 1008.2
20260505210511 77 278 8.0 11.0 0.00 0.00 0.00 51 1008.5
20260505210008 77 272 4.0 11.0 0.00 0.00 0.00 51 1008.2
20260505205506 78 354 7.0 9.0 0.00 0.00 0.00 50 1008.3
20260505205003 77 298 4.0 12.0 0.00 0.00 0.00 50 1008.4
20260505204501 77 233 4.0 13.0 0.00 0.00 0.00 51 1008.1
20260505203957 78 302 5.0 15.0 0.00 0.00 0.00 49 1008.1
20260505203454 78 271 3.0 14.0 0.00 0.00 0.00 50 1008.2
20260505202950 78 224 3.0 17.0 0.00 0.00 0.00 48 1008.1
20260505202447 78 287 4.0 12.0 0.00 0.00 0.00 47 1008.1
20260505201943 78 341 7.0 19.0 0.00 0.00 0.00 46 1008.1
20260505201440 78 327 16.0 18.0 0.00 0.00 0.00 46 1008.1
20260505200938 79 283 4.0 11.0 0.00 0.00 0.00 47 1008.1
20260505200436 79 320 7.0 17.0 0.00 0.00 0.00 47 1008.4
20260505195931 79 321 10.0 20.0 0.00 0.00 0.00 46 1008.2
20260505195428 79 281 3.0 14.0 0.00 0.00 0.00 48 1008.2
20260505194926 79 315 7.0 16.0 0.00 0.00 0.00 47 1008.3
20260505194423 79 243 4.0 12.0 0.00 0.00 0.00 50 1008.1
20260505193923 79 253 9.0 29.0 0.00 0.00 0.00 46 1008.5
20260505193421 79 300 5.0 14.0 0.00 0.00 0.00 46 1008.0
20260505192918 80 250 11.0 19.0 0.00 0.00 0.00 44 1008.3
20260505192416 80 288 5.0 16.0 0.00 0.00 0.00 45 1008.4
20260505191914 80 57 4.0 17.0 0.00 0.00 0.00 47 1008.4
20260505191412 80 300 28.0 28.0 0.00 0.00 0.00 44 1008.1
20260505190909 79 310 10.0 20.0 0.00 0.00 0.00 45 1008.5
20260505190404 80 287 6.0 21.0 0.00 0.00 0.00 45 1008.5
20260505185859 80 335 8.0 19.0 0.00 0.00 0.00 46 1008.6
20260505185356 79 327 5.0 12.0 0.00 0.00 0.00 50 1008.4
20260505184852 78 257 4.0 17.0 0.00 0.00 0.00 50 1008.4
20260505184349 79 292 4.0 10.0 0.00 0.00 0.00 52 1008.4
20260505183847 78 280 2.0 16.0 0.00 0.00 0.00 50 1008.6
20260505183343 79 348 4.0 17.0 0.00 0.00 0.00 50 1008.7
20260505182840 79 3 7.0 14.0 0.00 0.00 0.00 49 1008.8
20260505182337 79 247 4.0 15.0 0.00 0.00 0.00 51 1008.8